星链-31964 (STARLINK-31964 )

导读 | 豆包AI

STARLINK-31964是美国SpaceX公司星链(Starlink)星座的卫星,于2024年5月28日发射升空。作为星链第二代组网的成员,它运行在近地轨道,服务全球卫星互联网项目,为偏远地区、海洋航空等场景提供高速低延迟宽带接入。该卫星延续了星链批量部署策略,助力星座覆盖扩展,目前星链服务已覆盖超155个国家,推动全球互联网接入普惠化。

基本信息
目录编号:
59895
目录名称:
STARLINK-31964
国际标识:
2024-100L
轨道中心:
EARTH
卫星名称:
星链-31964
卫星全名:
星链-31964 (STARLINK-31964 )
卫星状态:
在轨 (已飞行656 天)
发射日期:
2024-05-28 UTC
国别 :
美国 (US)
星等 :
--
轨道信息
数据来源 国际轨道数据
星历时间: 2026-03-15T17:31:12+0800
11小时前
查看轨道信息
半长轴: 6861.185km
偏心率: 0.0000671
轨道倾角: 43.000°
近地点辐角 263.793°
升交点赤经 92.823°
平近点角 96.284°
近地点: 482.587km
远地点: 483.509km
周期: 94.267分钟
每日圈数: 15.275806
详细信息
固有亮度:
5
最大亮度:
1.5
卫星平台:
Starlink v2.0 mini
覆盖范围:
全球
运营商:
太空探索技术公司
运营商所在国:
美国
制造商(研发单位):
太空探索技术公司
制造商所在国:
美国
使用方式:
暂无
卫星简介
星链(Starlink)计划是由太空探索技术公司(SpaceX)提出的一个巨型低轨卫星互联网星座项目,计划在2019年至2024年间在太空搭建由约1.2万颗卫星组成的“星链”网络,其中1584颗将部署在地球上空550千米处的近地轨道,并从2020年开始工作。该卫星仍在工作。
2D轨道图
3D轨道图
轨道高度分析图
轨道倾角分析图
轨道综合分析图
查看轨道综合分析图